Weather History for Lumberton, NC

Change the Weather History Date:

Monday, February 11, 2013

  Actual Average Record
Temperature  
Mean Temperature 58 °F 46 °F  
Max Temperature 66 °F 57 °F 75 °F (2009)
Min Temperature 49 °F 35 °F 22 °F (2007)
Degree Days  
Heating Degree Days 7 19  
Month to date heating degree days 214 219  
Since 1 July heating degree days 1738 1938  
Cooling Degree Days 0 0  
Month to date cooling degree days 0 0  
Year to date cooling degree days 4 1  
Growing Degree Days 8 (Base 50)    
Moisture  
Dew Point 59 °F    
Average Humidity 89    
Maximum Humidity 97    
Minimum Humidity 81    
Precipitation  
Precipitation 0.31 in 0.10 in 0.35 in (2014)
Month to date precipitation 1.37 1.00  
Year to date precipitation 2.85 3.97  
Sea Level Pressure  
Sea Level Pressure 30.07 in    
Wind  
Wind Speed 11 mph (SW)    
Max Wind Speed 22 mph    
Max Gust Speed 28 mph    
Visibility 9 miles    
Events Rain    
T = Trace of Precipitation, MM = Missing Value Source: NWS Daily Summary

Daily Weather History Graph

Daily Weather History Graph

Search for Another Location

Airport:

Trip Planner

Search our weather history database for the weather conditions in past years. The results will help you decide how hot, cold, wet, or windy it might be!

Date:

Astronomy

Feb. 11, 2013 Rise Set
Actual Time 7:05 AM EST 5:55 PM EST
Civil Twilight 6:39 AM EST 6:21 PM EST
Nautical Twilight 6:09 AM EST 6:51 PM EST
Astronomical Twilight 5:40 AM EST 7:20 PM EST
Moon 7:34 AM EST (2/11) 7:43 PM EST (2/11)
Length of Visible Light 11h 42m
Length of Day
10h 50m
Waxing Crescent, 3% of the Moon is Illuminated
Feb 11
Waxing Crescent
Feb 17
First Quarter
Feb 25
Full
Mar 4
Last Quarter
Mar 11
New

Hourly Weather History & Observations

Time (EST) Temp. Dew Point Humidity Pressure Visibility Wind Dir Wind Speed Gust Speed Precip Events Conditions
12:54 AM 51.1 °F 48.9 °F 92% 30.22 in 5.0 mi SSE 9.2 mph - 0.05 in Rain Rain
1:54 AM 54.0 °F 52.0 °F 93% 30.19 in 10.0 mi South 8.1 mph 16.1 mph 0.04 in Rain Light Rain
2:54 AM 55.0 °F 53.1 °F 93% 30.15 in 9.0 mi South 9.2 mph - 0.04 in Rain Light Rain
3:54 AM 57.0 °F 55.0 °F 93% 30.13 in 10.0 mi South 8.1 mph 16.1 mph 0.01 in Rain Light Rain
4:54 AM 57.0 °F 55.9 °F 96% 30.11 in 10.0 mi South 10.4 mph - 0.02 in   Mostly Cloudy
5:54 AM 59.0 °F 55.9 °F 90% 30.11 in 9.0 mi SSW 9.2 mph - N/A   Overcast
6:41 AM 59.0 °F 57.2 °F 94% 30.12 in 10.0 mi SSW 5.8 mph - 0.00 in   Overcast
6:51 AM 59.0 °F 57.2 °F 94% 30.12 in 9.0 mi SSW 8.1 mph - 0.01 in Rain Light Rain
6:54 AM 59.0 °F 57.0 °F 93% 30.12 in 9.0 mi SSW 9.2 mph - 0.01 in Rain Light Rain
7:41 AM 60.8 °F 57.2 °F 88% 30.11 in 5.0 mi South 11.5 mph - 0.02 in Rain Light Rain
7:54 AM 60.1 °F 57.9 °F 93% 30.11 in 6.0 mi SSW 5.8 mph - 0.03 in Rain Light Rain
7:57 AM 60.8 °F 57.2 °F 88% 30.11 in 6.0 mi South 8.1 mph - 0.00 in Rain Light Rain
8:54 AM 61.0 °F 59.0 °F 93% 30.12 in 5.0 mi SSW 9.2 mph - 0.05 in Rain Light Rain
9:29 AM 60.8 °F 60.8 °F 100% 30.11 in 7.0 mi SSW 11.5 mph 18.4 mph 0.01 in Rain Light Rain
9:54 AM 62.1 °F 60.1 °F 93% 30.11 in 6.0 mi SSW 12.7 mph - 0.03 in Rain Light Rain
10:16 AM 62.6 °F 60.8 °F 94% 30.11 in 10.0 mi SW 10.4 mph - 0.00 in   Overcast
10:31 AM 62.6 °F 60.8 °F 94% 30.11 in 10.0 mi SW 10.4 mph - 0.00 in   Overcast
10:54 AM 63.0 °F 61.0 °F 93% 30.10 in 10.0 mi SW 11.5 mph - 0.00 in   Overcast
11:54 AM 63.0 °F 61.0 °F 93% 30.04 in 10.0 mi SSW 11.5 mph 21.9 mph 0.01 in Rain Light Rain
12:54 PM 64.0 °F 61.0 °F 90% 30.04 in 10.0 mi SW 18.4 mph 21.9 mph 0.00 in   Overcast
1:54 PM 64.0 °F 61.0 °F 90% 30.04 in 10.0 mi SW 16.1 mph 24.2 mph N/A   Overcast
2:14 PM 66.2 °F 60.8 °F 83% 30.03 in 10.0 mi WSW 12.7 mph 20.7 mph N/A   Overcast
2:54 PM 64.9 °F 61.0 °F 87% 30.02 in 10.0 mi WSW 17.3 mph 21.9 mph N/A   Overcast
3:39 PM 66.2 °F 60.8 °F 83% 30.01 in 10.0 mi SW 11.5 mph 25.3 mph N/A   Scattered Clouds
3:54 PM 66.0 °F 61.0 °F 84% 30.00 in 10.0 mi SW 11.5 mph 19.6 mph N/A   Mostly Cloudy
4:22 PM 66.2 °F 60.8 °F 83% 30.00 in 10.0 mi SW 11.5 mph - N/A   Scattered Clouds
4:32 PM 66.2 °F 60.8 °F 83% 30.00 in 10.0 mi WSW 10.4 mph - N/A   Mostly Cloudy
4:54 PM 66.0 °F 61.0 °F 84% 30.01 in 10.0 mi SW 11.5 mph - N/A   Overcast
5:54 PM 64.0 °F 61.0 °F 90% 30.01 in 10.0 mi SW 9.2 mph - 0.01 in Rain Light Rain
6:54 PM 64.0 °F 62.1 °F 93% 30.01 in 10.0 mi SW 10.4 mph - 0.01 in Rain Light Rain
7:54 PM 63.0 °F 61.0 °F 93% 29.99 in 10.0 mi SW 12.7 mph - 0.01 in   Scattered Clouds
8:54 PM 63.0 °F 60.1 °F 90% 30.01 in 10.0 mi WSW 12.7 mph - N/A   Mostly Cloudy
9:54 PM 62.1 °F 59.0 °F 90% 30.01 in 10.0 mi WSW 10.4 mph - N/A   Overcast
10:54 PM 62.1 °F 57.0 °F 84% 29.98 in 10.0 mi SW 11.5 mph - N/A   Overcast
11:54 PM 60.1 °F 55.9 °F 86% 29.99 in 10.0 mi West 6.9 mph - N/A   Clear